Location: Martley
(52.2333°N, 2.3667°W)
Time: 12:23:19
(UTC+00:00)

Cosmos 1346 Rocket - Pass Details

Date: 11 December 2019
Orbit: 524 x 555 km, 81.2° (Epoch: 20 January)

Event Time Altitude Azimuth Distance (km) Brightness Sun altitude
Rises 07:15:27 0° 235° (SW) 2,653 6.0 -7.6°
Reaches altitude 10° 07:18:11 10° 256° (WSW) 1,771 5.0 -7.2°
Maximum altitude 07:20:48 17° 298° (WNW) 1,383 4.2 -6.9°
Drops below altitude 10° 07:23:27 10° 341° (NNW) 1,786 5.0 -6.5°
Sets 07:26:14 0° 2° (N) 2,687 6.1 -6.2°
